Location: Chimay
(50.0486°N, 4.3171°E)
Time: 05:36:02
(UTC+00:00)

SL-16 R/B - Pass Details

Date: 08 August 2020
Orbit: 843 x 845 km, 71.0° (Epoch: 19 September)

Event Time Altitude Azimuth Distance (km) Brightness Sun altitude
Rises 23:17:51 0° 322° (NW) 3,416 6.3 -23.8°
Reaches altitude 10° 23:20:47 10° 308° (NW) 2,476 5.2 -23.9°
Maximum altitude 23:25:04 23° 258° (WSW) 1,746 3.8 -24.0°
Enters shadow 23:25:59 22° 245° (WSW) 1,784 3.7 -24.0°
